FW7777 Weather Reports


time (UTC)temp
C
wind
direction
speed
KPH
gust
KPH
rain 1hr
cm
rain 24hr
cm
rain mn
cm
humidity
%
barometer
mb
20260905142411 46 0.0 0.0 0.00 0.00 0.00 100 1008.8
20260905141406 49 0.0 0.0 0.00 0.00 0.00 100 1008.5
20260905140905 48 0.0 0.0 0.00 0.00 0.00 100 1008.6
20260905140406 47 0.0 0.0 0.00 0.00 0.00 100 1008.8
20260905135909 47 0.0 0.0 0.00 0.00 0.00 100 1008.8
20260905134904 46 0.0 0.0 0.00 0.00 0.00 100 1009.0
20260905134405 43 0.0 0.0 0.00 0.00 0.00 100 1009.4
20260905133904 50 0.0 0.0 0.00 0.00 0.00 100 1008.7
20260905133404 49 0.0 0.0 0.00 0.00 0.00 100 1008.8
20260905132910 47 0.0 0.0 0.00 0.00 0.00 100 1009.0
20260905131906 47 0.0 0.0 0.00 0.00 0.00 100 1009.1
20260905131406 46 0.0 0.0 0.00 0.00 0.00 100 1009.3
20260905130907 47 0.0 0.0 0.00 0.00 0.00 100 1009.2
20260905130410 45 0.0 0.0 0.00 0.00 0.00 100 1009.5
20260905125411 45 0.0 0.0 0.00 0.00 0.00 100 1009.6
20260905124410 43 0.0 0.0 0.00 0.00 0.00 100 1009.9
20260905122910 48 0.0 0.0 0.00 0.00 0.00 100 1009.5
20260905121906 45 0.0 0.0 0.00 0.00 0.00 100 1010.0
20260905121406 47 0.0 0.0 0.00 0.00 0.00 100 1009.8
20260905120908 46 0.0 0.0 0.00 0.00 0.00 100 1010.0
20260905120405 47 0.0 0.0 0.00 0.00 0.00 100 1010.0
20260905115906 45 0.0 0.0 0.00 0.00 0.00 100 1010.2
20260905115406 47 0.0 0.0 0.00 0.00 0.00 100 1010.0
20260905114905 45 0.0 0.0 0.00 0.00 0.00 100 1010.3
20260905114411 45 0.0 0.0 0.00 0.00 0.00 100 1010.2
20260905113406 48 0.0 0.0 0.00 0.00 0.00 100 1010.2
20260905112905 46 0.0 0.0 0.00 0.00 0.00 100 1010.2
20260905112405 45 0.0 0.0 0.00 0.00 0.00 100 1010.5
20260905111905 45 0.0 0.0 0.00 0.00 0.00 100 1010.6
20260905111409 46 0.0 0.0 0.00 0.00 0.00 100 1010.2
20260905110405 47 0.0 0.0 0.00 0.00 0.00 100 1010.3
20260905105906 46 0.0 0.0 0.00 0.00 0.00 100 1010.4
20260905105405 43 0.0 0.0 0.00 0.00 0.00 100 1010.8
20260905104908 45 0.0 0.0 0.00 0.00 0.00 100 1010.6
20260905104407 43 0.0 0.0 0.00 0.00 0.00 100 1010.8
20260905103905 40 0.0 0.0 0.00 0.00 0.00 100 1011.2
20260905103406 39 0.0 0.0 0.00 0.00 0.00 100 1011.2
20260905102906 37 0.0 0.0 0.00 0.00 0.00 100 1011.5
20260905102406 35 0.0 0.0 0.00 0.00 0.00 100 1011.7
20260905101905 35 0.0 0.0 0.00 0.00 0.00 100 1011.7
20260905101405 33 0.0 0.0 0.00 0.00 0.00 100 1011.9
20260905100910 33 0.0 0.0 0.00 0.00 0.00 100 1011.9
20260905095906 32 0.0 0.0 0.00 0.00 0.00 100 1012.0
20260905095411 32 0.0 0.0 0.00 0.00 0.00 100 1012.0
20260905093906 32 0.0 0.0 0.00 0.00 0.00 100 1012.2
20260905093406 32 0.0 0.0 0.00 0.00 0.00 100 1012.3
20260905092906 31 0.0 0.0 0.00 0.00 0.00 100 1012.4
20260905092405 32 0.0 0.0 0.00 0.00 0.00 100 1012.3
20260905091905 32 0.0 0.0 0.00 0.00 0.00 100 1012.4
20260905091404 31 0.0 0.0 0.00 0.00 0.00 100 1012.5
20260905090907 31 0.0 0.0 0.00 0.00 0.00 100 1012.6
20260905090407 31 0.0 0.0 0.00 0.00 0.00 100 1012.7
20260905085905 31 0.0 0.0 0.00 0.00 0.00 100 1012.7
20260905085405 31 0.0 0.0 0.00 0.00 0.00 100 1012.8
20260905084906 31 0.0 0.0 0.00 0.00 0.00 100 1012.9
20260905084405 30 0.0 0.0 0.00 0.00 0.00 100 1012.9
20260905083909 30 0.0 0.0 0.00 0.00 0.00 100 1013.0
20260905082909 30 0.0 0.0 0.00 0.00 0.00 100 1013.0
20260905082404 30 0.0 0.0 0.00 0.00 0.00 100 1013.0
20260905081905 30 0.0 0.0 0.00 0.00 0.00 100 1013.0
20260905081409 30 0.0 0.0 0.00 0.00 0.00 100 1013.1
20260905080406 29 0.0 0.0 0.00 0.00 0.00 100 1013.1
20260905075911 29 0.0 0.0 0.00 0.00 0.00 100 1013.2
20260905074406 28 0.0 0.0 0.00 0.00 0.00 100 1013.3
20260905073905 28 0.0 0.0 0.00 0.00 0.00 100 1013.4
20260905073410 28 0.0 0.0 0.00 0.00 0.00 100 1013.5
20260905072404 27 0.0 0.0 0.00 0.00 0.00 100 1013.4
20260905071907 27 0.0 0.0 0.00 0.00 0.00 100 1013.4
20260905071409 27 0.0 0.0 0.00 0.00 0.00 100 1013.4
20260905070905 27 0.0 0.0 0.00 0.00 0.00 100 1013.5
20260905070406 26 0.0 0.0 0.00 0.00 0.00 100 1013.5
20260905065906 26 0.0 0.0 0.00 0.00 0.00 100 1013.5
20260905065409 26 0.0 0.0 0.00 0.00 0.00 100 1013.6
20260905063905 25 0.0 0.0 0.00 0.00 0.00 100 1013.9
20260905063405 24 0.0 0.0 0.00 0.00 0.00 100 1013.9
20260905062911 24 0.0 0.0 0.00 0.00 0.00 100 1013.8
20260905061906 24 0.0 0.0 0.00 0.00 0.00 100 1013.9
20260905061410 23 0.0 0.0 0.00 0.00 0.00 100 1013.8
20260905060405 23 0.0 0.0 0.00 0.00 0.00 100 1013.9
20260905055905 23 0.0 0.0 0.00 0.00 0.00 100 1014.0
20260905055405 23 0.0 0.0 0.00 0.00 0.00 100 1013.9
20260905054905 22 0.0 0.0 0.00 0.00 0.00 100 1013.9
20260905054407 22 0.0 0.0 0.00 0.00 0.00 100 1013.9
20260905053906 22 0.0 0.0 0.00 0.00 0.00 100 1013.9
20260905053406 22 0.0 0.0 0.00 0.00 0.00 100 1013.9
20260905052908 22 0.0 0.0 0.00 0.00 0.00 100 1013.9
20260905052412 21 0.0 0.0 0.00 0.00 0.00 100 1014.0